Change the Weather History Date:

Monday, December 17, 2012

  Actual Average Record
Temperature  
Mean Temperature 56 °F -  
Max Temperature 60 °F 55 °F 64 °F (1997)
Min Temperature 51 °F 40 °F 30 °F (2001)
Degree Days  
Heating Degree Days 10    
Growing Degree Days 6 (Base 50)    
Moisture  
Dew Point 47 °F    
Average Humidity 76    
Maximum Humidity 100    
Minimum Humidity 4    
Precipitation  
Precipitation 0.00 in 0.10 in - ()
Sea Level Pressure  
Sea Level Pressure 29.98 in    
Wind  
Wind Speed 6 mph ()    
Max Wind Speed 14 mph    
Max Gust Speed 26 mph    
Visibility 6.2 miles    
Events      
Averages and records for this station are not official NWS values.
T = Trace of Precipitation, MM = Missing Value Source: Averaged Metar Reports

Daily Weather History Graph

Daily Weather History Graph

Search for Another Location

Airport or City:

Trip Planner

Search our weather history database for the weather conditions in past years. The results will help you decide how hot, cold, wet, or windy it might be!

Date:

Astronomy

Dec. 17, 2012 Rise Set
Actual Time 7:44 AM CET 5:01 PM CET
Civil Twilight 7:14 AM CET 5:32 PM CET
Nautical Twilight 6:39 AM CET 6:06 PM CET
Astronomical Twilight 6:06 AM CET 6:39 PM CET
Moon 10:43 AM CET (12/17) 10:06 PM CET (12/17)
Length of Visible Light 10h 18m
Length of Day
9h 16m
Waxing Crescent, 22% of the Moon is Illuminated
Dec 17
Waxing Crescent
Dec 20
First Quarter
Dec 28
Full
Jan 5
Last Quarter
Jan 11
New

Hourly Weather History & Observations

Time (CET) Temp. Dew Point Humidity Pressure Visibility Wind Dir Wind Speed Gust Speed Precip Events Conditions
12:20 AM 51.8 °F 51.8 °F 100% 30.04 in - Variable 2.3 mph - N/A   Clear
12:50 AM 51.8 °F 51.8 °F 100% 30.01 in - Variable 2.3 mph - N/A   Clear
1:20 AM 53.6 °F 51.8 °F 94% 30.04 in - Calm Calm - N/A   Clear
1:50 AM 51.8 °F 50.0 °F 94% 30.01 in - Calm Calm - N/A   Clear
2:20 AM 51.8 °F 50.0 °F 94% 30.01 in 6.2 mi Variable 1.2 mph - N/A   Partly Cloudy
2:50 AM 51.8 °F 50.0 °F 94% 30.01 in 6.2 mi Variable 1.2 mph - N/A   Partly Cloudy
3:20 AM 51.8 °F 51.8 °F 100% 29.98 in 6.2 mi Variable 2.3 mph - N/A   Partly Cloudy
3:50 AM 55.4 °F 53.6 °F 94% 29.98 in 6.2 mi SW 6.9 mph - N/A   Partly Cloudy
4:20 AM 55.4 °F 53.6 °F 94% 29.98 in 6.2 mi SSW 4.6 mph - N/A   Partly Cloudy
4:50 AM 55.4 °F 51.8 °F 88% 29.95 in 6.2 mi Variable 1.2 mph - N/A   Partly Cloudy
5:20 AM 55.4 °F 53.6 °F 94% 29.95 in 6.2 mi SSW 6.9 mph - N/A   Partly Cloudy
5:50 AM 57.2 °F 55.4 °F 94% 29.95 in 6.2 mi SSW 5.8 mph - N/A   Scattered Clouds
6:20 AM 59.0 °F 55.4 °F 88% 29.92 in 6.2 mi SW 6.9 mph - N/A   Scattered Clouds
6:50 AM 59.0 °F 55.4 °F 88% 29.92 in 6.2 mi WSW 11.5 mph - N/A   Scattered Clouds
7:20 AM 59.0 °F 55.4 °F 88% 29.95 in 6.2 mi WSW 12.7 mph - N/A   Scattered Clouds
7:50 AM 59.0 °F 55.4 °F 88% 29.92 in 6.2 mi West 10.4 mph - N/A   Scattered Clouds
8:20 AM 59.0 °F 55.4 °F 88% 29.92 in 6.2 mi West 10.4 mph - N/A   Scattered Clouds
8:50 AM 59.0 °F 55.4 °F 88% 29.92 in 6.2 mi West 11.5 mph - N/A   Scattered Clouds
9:20 AM 59.0 °F 55.4 °F 88% 29.95 in 6.2 mi West 8.1 mph - N/A   Scattered Clouds
9:50 AM 59.0 °F 51.8 °F 77% 29.95 in 6.2 mi WNW 10.4 mph - N/A   Scattered Clouds
10:20 AM 59.0 °F 51.8 °F 77% 29.98 in 6.2 mi WNW 8.1 mph - N/A   Scattered Clouds
10:50 AM 59.0 °F 35.6 °F 42% 29.98 in 6.2 mi WNW 8.1 mph - N/A   Scattered Clouds
11:20 AM 59.0 °F -54.4 °F 4% 29.98 in 6.2 mi NW 10.4 mph - N/A   Scattered Clouds
11:50 AM 59.0 °F 50.0 °F 72% 29.98 in 6.2 mi WNW 9.2 mph - N/A   Scattered Clouds
12:20 PM 59.0 °F 48.2 °F 67% 29.98 in 6.2 mi NW 10.4 mph - N/A   Scattered Clouds
12:50 PM 59.0 °F 48.2 °F 67% 29.98 in 6.2 mi WNW 9.2 mph - N/A   Scattered Clouds
1:20 PM 60.8 °F 50.0 °F 68% 29.98 in 6.2 mi WNW 9.2 mph - N/A   Scattered Clouds
1:50 PM 59.0 °F 48.2 °F 67% 29.95 in 6.2 mi WNW 9.2 mph - N/A   Scattered Clouds
2:20 PM 59.0 °F 48.2 °F 67% 29.95 in 6.2 mi WNW 10.4 mph - N/A   Scattered Clouds
2:50 PM 59.0 °F 48.2 °F 67% 29.95 in 6.2 mi WNW 11.5 mph 23.0 mph N/A   Scattered Clouds
3:20 PM 59.0 °F 48.2 °F 67% 29.98 in 6.2 mi WNW 9.2 mph - N/A   Scattered Clouds
3:50 PM 57.2 °F 48.2 °F 72% 29.98 in 6.2 mi WNW 10.4 mph - N/A   Scattered Clouds
4:20 PM 57.2 °F 46.4 °F 67% 29.98 in 6.2 mi NW 9.2 mph - N/A   Scattered Clouds
4:50 PM 55.4 °F 44.6 °F 67% 29.98 in 6.2 mi NW 6.9 mph - N/A   Scattered Clouds
5:20 PM 55.4 °F 44.6 °F 67% 29.98 in 6.2 mi NW 4.6 mph - N/A   Partly Cloudy
5:50 PM 55.4 °F 44.6 °F 67% 29.98 in 6.2 mi NW 4.6 mph - N/A   Partly Cloudy
6:20 PM 55.4 °F 44.6 °F 67% 30.01 in 6.2 mi NNW 5.8 mph - N/A   Partly Cloudy
6:50 PM 55.4 °F 42.8 °F 63% 30.01 in 6.2 mi NW 5.8 mph - N/A   Partly Cloudy
7:20 PM 53.6 °F 44.6 °F 72% 30.01 in 6.2 mi NW 4.6 mph - N/A   Partly Cloudy
7:50 PM 55.4 °F 44.6 °F 67% 30.01 in 6.2 mi NW 6.9 mph - N/A   Partly Cloudy
8:20 PM 55.4 °F 44.6 °F 67% 30.01 in 6.2 mi WNW 8.1 mph - N/A   Partly Cloudy
8:50 PM 55.4 °F 44.6 °F 67% 30.01 in 6.2 mi WNW 9.2 mph - N/A   Partly Cloudy
9:20 PM 57.2 °F 42.8 °F 59% 30.04 in 6.2 mi WNW 11.5 mph - N/A   Partly Cloudy
9:50 PM 57.2 °F 44.6 °F 63% 30.01 in 6.2 mi NW 13.8 mph - N/A   Partly Cloudy
10:20 PM 57.2 °F 44.6 °F 63% 30.01 in 6.2 mi NW 13.8 mph 26.5 mph N/A   Partly Cloudy
10:50 PM 55.4 °F 46.4 °F 72% 30.01 in 6.2 mi NW 10.4 mph 23.0 mph N/A   Partly Cloudy